Preston, Minnesota, United States (55965)
Lat: 43.67N, Lon: 92.08W
Wx Zone: MNZ095
Local Info
Past Weather Observations for Today

NOTE: This archive is for the closest National Weather Service station to Preston. Information may differ from the station used for current weather conditions.

Click here for Long-term Archive

Time Weather Temperature Dewpoint Humidity Pressure Winds Precip Visibility
19:56
Clear
7°F / -14°C 1°F / -17°C 78% 30.21 in
(1023 mb)
W 6.9 mph
(W 11 kph)
- 10SM
19:35
Clear
9°F / -13°C 1°F / -17°C 72% 30.21 in
(1023 mb)
WNW 9.2 mph
(WNW 15 kph)
- 10SM
19:15
Clear
7°F / -14°C 1°F / -17°C 78% 30.18 in
(1022 mb)
W 9.2 mph
(W 15 kph)
- 10SM
18:55
Clear
7°F / -14°C 1°F / -17°C 78% 30.18 in
(1022 mb)
W 6.9 mph
(W 11 kph)
- 10SM
18:35
Clear
9°F / -13°C 1°F / -17°C 72% 30.18 in
(1022 mb)
WNW 8.1 mph
(WNW 13 kph)
- 10SM
18:15
Clear
9°F / -13°C 3°F / -16°C 78% 30.18 in
(1022 mb)
W 6.9 mph
(W 11 kph)
- 10SM
17:55
Clear
10°F / -12°C 3°F / -16°C 72% 30.18 in
(1022 mb)
WNW 6.9 mph
(WNW 11 kph)
- 10SM
17:35
Clear
10°F / -12°C 3°F / -16°C 72% 30.18 in
(1022 mb)
W 6.9 mph
(W 11 kph)
- 10SM
17:15
Clear
10°F / -12°C 3°F / -16°C 72% 30.18 in
(1022 mb)
W 8.1 mph
(W 13 kph)
- 10SM
16:55
Clear
10°F / -12°C 3°F / -16°C 72% 30.15 in
(1021 mb)
WNW 9.2 mph
(WNW 15 kph)
- 10SM
16:35
Clear
12°F / -11°C 5°F / -15°C 73% 30.15 in
(1021 mb)
WNW 8.1 mph
(WNW 13 kph)
- 10SM
16:15
Clear
14°F / -10°C 5°F / -15°C 67% 30.15 in
(1021 mb)
WNW 10.4 mph
(WNW 17 kph)
- 10SM
15:55
Clear
14°F / -10°C 5°F / -15°C 67% 30.15 in
(1021 mb)
W 11.5 mph
(W 19 kph)
- 10SM
15:35
Clear
16°F / -9°C 5°F / -15°C 62% 30.15 in
(1021 mb)
WNW 15 mph
(WNW 24 kph)
- 10SM
15:15
Clear
16°F / -9°C 5°F / -15°C 62% 30.15 in
(1021 mb)
WNW 16.1 mph
(WNW 26 kph)
- 10SM
14:55
Clear
16°F / -9°C 5°F / -15°C 62% 30.12 in
(1020 mb)
WNW 18.4 mph
(WNW 30 kph)
- 10SM
14:35
Clear
16°F / -9°C 5°F / -15°C 62% 30.12 in
(1020 mb)
W 17.3 mph
(W 28 kph)
- 10SM
14:15
Clear
16°F / -9°C 5°F / -15°C 62% 30.12 in
(1020 mb)
NW 23 mph
(NW 37 kph)
- 10SM
13:55
Clear
16°F / -9°C 5°F / -15°C 62% 30.12 in
(1020 mb)
NW 15 mph
(NW 24 kph)
- 10SM
13:35
Clear
16°F / -9°C 5°F / -15°C 62% 30.12 in
(1020 mb)
NW 17.3 mph
(NW 28 kph)
- 10SM
13:16
Clear
16°F / -9°C 5°F / -15°C 62% 30.12 in
(1020 mb)
NW 20.7 mph
(NW 33 kph)
- 10SM
12:56
Clear
16°F / -9°C 5°F / -15°C 62% 30.12 in
(1020 mb)
NW 18.4 mph
(NW 30 kph)
- 10SM
12:35
Clear
16°F / -9°C 3°F / -16°C 57% 30.12 in
(1020 mb)
NW 21.9 mph
(NW 35 kph)
- 10SM
12:15
Clear
16°F / -9°C 3°F / -16°C 57% 30.09 in
(1019 mb)
NW 25.3 mph
(NW 41 kph)
- 10SM
11:55
Clear
16°F / -9°C 1°F / -17°C 53% 30.09 in
(1019 mb)
NW 16.1 mph
(NW 26 kph)
- 10SM
11:36
Clear
16°F / -9°C 3°F / -16°C 57% 30.09 in
(1019 mb)
NW 19.6 mph
(NW 32 kph)
- 10SM
11:15
Clear
16°F / -9°C 3°F / -16°C 57% 30.12 in
(1020 mb)
NW 17.3 mph
(NW 28 kph)
- 10SM
10:55
Clear
16°F / -9°C 1°F / -17°C 53% 30.12 in
(1020 mb)
NW 17.3 mph
(NW 28 kph)
- 10SM
10:35
Clear
14°F / -10°C 3°F / -16°C 62% 30.09 in
(1019 mb)
NW 20.7 mph
(NW 33 kph)
- 10SM
10:15
Clear
14°F / -10°C 3°F / -16°C 62% 30.09 in
(1019 mb)
NW 17.3 mph
(NW 28 kph)
- 10SM
09:55
Clear
14°F / -10°C 3°F / -16°C 62% 30.09 in
(1019 mb)
NW 16.1 mph
(NW 26 kph)
- 10SM
09:35
Clear
12°F / -11°C 1°F / -17°C 62% 30.09 in
(1019 mb)
NW 17.3 mph
(NW 28 kph)
- 10SM
09:15
Clear
12°F / -11°C 3°F / -16°C 67% 30.09 in
(1019 mb)
NW 16.1 mph
(NW 26 kph)
- 10SM
08:55
Clear
12°F / -11°C 3°F / -16°C 67% 30.06 in
(1018 mb)
NW 16.1 mph
(NW 26 kph)
- 10SM
08:35
Clear
10°F / -12°C 3°F / -16°C 72% 30.06 in
(1018 mb)
NW 17.3 mph
(NW 28 kph)
- 10SM
08:15
Clear
10°F / -12°C 3°F / -16°C 72% 30.06 in
(1018 mb)
NW 13.8 mph
(NW 22 kph)
- 10SM
07:55
Clear
10°F / -12°C 3°F / -16°C 72% 30.06 in
(1018 mb)
NW 12.7 mph
(NW 20 kph)
- 10SM
07:36
Clear
9°F / -13°C 1°F / -17°C 72% 30.04 in
(1017 mb)
NW 15 mph
(NW 24 kph)
- 10SM
07:15
Clear
9°F / -13°C 3°F / -16°C 78% 30.04 in
(1017 mb)
NW 10.4 mph
(NW 17 kph)
- 10SM
06:55
Clear
9°F / -13°C 3°F / -16°C 78% 30.04 in
(1017 mb)
NW 11.5 mph
(NW 19 kph)
- 10SM
06:35
Clear
9°F / -13°C 3°F / -16°C 78% 30.04 in
(1017 mb)
WNW 12.7 mph
(WNW 20 kph)
- 10SM
06:15
Clear
9°F / -13°C 5°F / -15°C 85% 30.04 in
(1017 mb)
WNW 12.7 mph
(WNW 20 kph)
- 10SM
05:55
Clear
9°F / -13°C 5°F / -15°C 85% 30.01 in
(1016 mb)
WNW 12.7 mph
(WNW 20 kph)
- 10SM
05:35
Clear
9°F / -13°C 5°F / -15°C 85% 30.01 in
(1016 mb)
WNW 11.5 mph
(WNW 19 kph)
- 10SM
05:15
Clear
9°F / -13°C 5°F / -15°C 85% 30.01 in
(1016 mb)
WNW 12.7 mph
(WNW 20 kph)
- 10SM
04:55
Clear
10°F / -12°C 5°F / -15°C 79% 30.01 in
(1016 mb)
WNW 11.5 mph
(WNW 19 kph)
- 10SM
04:35
Clear
10°F / -12°C 5°F / -15°C 79% 30.01 in
(1016 mb)
WNW 13.8 mph
(WNW 22 kph)
- 10SM
04:15
Clear
10°F / -12°C 7°F / -14°C 85% 30.01 in
(1016 mb)
W 15 mph
(W 24 kph)
- 10SM
03:55
Clear
10°F / -12°C 7°F / -14°C 85% 30.01 in
(1016 mb)
W 13.8 mph
(W 22 kph)
- 10SM
03:35
Clear
10°F / -12°C 7°F / -14°C 85% 30.01 in
(1016 mb)
W 13.8 mph
(W 22 kph)
- 10SM
03:16
Clear
10°F / -12°C 7°F / -14°C 85% 29.98 in
(1015 mb)
WNW 12.7 mph
(WNW 20 kph)
- 10SM
02:56
Clear
10°F / -12°C 7°F / -14°C 85% 29.98 in
(1015 mb)
WNW 13.8 mph
(WNW 22 kph)
- 10SM
02:35
Clear
12°F / -11°C 7°F / -14°C 79% 29.98 in
(1015 mb)
WNW 15 mph
(WNW 24 kph)
- 10SM
02:15
Clear
12°F / -11°C 9°F / -13°C 85% 29.98 in
(1015 mb)
W 12.7 mph
(W 20 kph)
- 10SM
01:55
Clear
12°F / -11°C 9°F / -13°C 85% 29.98 in
(1015 mb)
WNW 12.7 mph
(WNW 20 kph)
- 10SM
01:35
Clear
12°F / -11°C 9°F / -13°C 85% 29.98 in
(1015 mb)
WNW 13.8 mph
(WNW 22 kph)
- 10SM
01:15
Clear
12°F / -11°C 9°F / -13°C 85% 29.98 in
(1015 mb)
WNW 13.8 mph
(WNW 22 kph)
- 10SM
00:56
Clear
12°F / -11°C 9°F / -13°C 85% 29.98 in
(1015 mb)
WNW 13.8 mph
(WNW 22 kph)
- 10SM
00:35
Clear
14°F / -10°C 9°F / -13°C 79% 29.98 in
(1015 mb)
W 13.8 mph
(W 22 kph)
- 10SM
00:15
Clear
14°F / -10°C 9°F / -13°C 79% 29.98 in
(1015 mb)
W 15 mph
(W 24 kph)
- 10SM
Time Weather Temperature Dewpoint Humidity Pressure Winds Precip Visibility


Weather for websites

WeatherForYou.com, LLC is not responsible for any damages or problems caused by this service. Current weather conditions are obtained from the closest station including government and personal stations which may have varying degrees of accuracy. Weather forecasts are derived from the NOAA NDFD. Like all things, this site belongs to Jesus Christ... He just trusts me to maintain it. If you have any questions or comments email webmaster@weatherforyou.com

Copyright © 2014, WeatherForYou.com LLC. All rights reserved.